owner,sensor,date,latitude,longitude,vertical_datum,mass_concentration_of_oxygen_in_sea_water,qcFlag 
DISL,ioos:station:DISL:MHPA:1,2010-05-01T00:00:00Z,30.6671,-87.9365,3.959,7.72,1111122 
DISL,ioos:station:DISL:MHPA:1,2010-05-01T00:30:00Z,30.6671,-87.9365,3.794,7.61,1111122 
DISL,ioos:station:DISL:MHPA:1,2010-05-01T01:00:00Z,30.6671,-87.9365,3.661,7.71,1111122 
DISL,ioos:station:DISL:MHPA:1,2010-05-01T01:30:00Z,30.6671,-87.9365,3.558,7.89,1111122 
DISL,ioos:station:DISL:MHPA:1,2010-05-01T02:00:00Z,30.6671,-87.9365,3.507,7.86,1111122 
DISL,ioos:station:DISL:MHPA:1,2010-05-01T02:30:00Z,30.6671,-87.9365,3.463,7.87,1111122 
DISL,ioos:station:DISL:MHPA:1,2010-05-01T03:00:00Z,30.6671,-87.9365,3.388,7.81,1111122 
DISL,ioos:station:DISL:MHPA:1,2010-05-01T03:30:00Z,30.6671,-87.9365,3.342,7.75,1111122 
DISL,ioos:station:DISL:MHPA:1,2010-05-01T04:00:00Z,30.6671,-87.9365,3.304,7.74,1111122 
DISL,ioos:station:DISL:MHPA:1,2010-05-01T04:30:00Z,30.6671,-87.9365,3.276,7.68,1111122 
DISL,ioos:station:DISL:MHPA:1,2010-05-01T05:00:00Z,30.6671,-87.9365,3.223,7.64,1111122 
DISL,ioos:station:DISL:MHPA:1,2010-05-01T05:30:00Z,30.6671,-87.9365,3.154,7.56,1111122 
DISL,ioos:station:DISL:MHPA:1,2010-05-01T06:00:00Z,30.6671,-87.9365,3.097,7.46,1111122 
DISL,ioos:station:DISL:MHPA:1,2010-05-01T06:30:00Z,30.6671,-87.9365,3.094,7.43,1111122 
DISL,ioos:station:DISL:MHPA:1,2010-05-01T07:00:00Z,30.6671,-87.9365,3.137,7.4,1111122 
DISL,ioos:station:DISL:MHPA:1,2010-05-01T07:30:00Z,30.6671,-87.9365,3.271,7.5,1111122 
DISL,ioos:station:DISL:MHPA:1,2010-05-01T08:00:00Z,30.6671,-87.9365,3.418,7.47,1111122 
DISL,ioos:station:DISL:MHPA:1,2010-05-01T08:30:00Z,30.6671,-87.9365,3.586,7.56,1111122 
DISL,ioos:station:DISL:MHPA:1,2010-05-01T09:00:00Z,30.6671,-87.9365,3.717,7.55,1111122 
DISL,ioos:station:DISL:MHPA:1,2010-05-01T09:30:00Z,30.6671,-87.9365,3.816,7.52,1111122 
DISL,ioos:station:DISL:MHPA:1,2010-05-01T10:00:00Z,30.6671,-87.9365,3.945,7.46,1111122 
DISL,ioos:station:DISL:MHPA:1,2010-05-01T10:30:00Z,30.6671,-87.9365,4.091,7.43,1111122 
DISL,ioos:station:DISL:MHPA:1,2010-05-01T11:00:00Z,30.6671,-87.9365,4.219,7.51,1111122 
DISL,ioos:station:DISL:MHPA:1,2010-05-01T11:30:00Z,30.6671,-87.9365,4.343,7.47,1111122 
DISL,ioos:station:DISL:MHPA:1,2010-05-01T12:00:00Z,30.6671,-87.9365,4.486,7.48,1111122 
DISL,ioos:station:DISL:MHPA:1,2010-05-01T12:30:00Z,30.6671,-87.9365,4.609,7.47,1111122 
DISL,ioos:station:DISL:MHPA:1,2010-05-01T13:00:00Z,30.6671,-87.9365,4.655,7.51,1111122 
DISL,ioos:station:DISL:MHPA:1,2010-05-01T13:30:00Z,30.6671,-87.9365,4.782,7.56,1111122 
DISL,ioos:station:DISL:MHPA:1,2010-05-01T14:00:00Z,30.6671,-87.9365,4.897,7.63,1111122 
DISL,ioos:station:DISL:MHPA:1,2010-05-01T14:30:00Z,30.6671,-87.9365,5.017,7.68,1111122 
DISL,ioos:station:DISL:MHPA:1,2010-05-01T15:00:00Z,30.6671,-87.9365,5.161,7.74,1111122 
DISL,ioos:station:DISL:MHPA:1,2010-05-01T15:30:00Z,30.6671,-87.9365,5.371,7.79,1111122 
DISL,ioos:station:DISL:MHPA:1,2010-05-01T16:00:00Z,30.6671,-87.9365,5.533,7.82,1111122 
DISL,ioos:station:DISL:MHPA:1,2010-05-01T16:30:00Z,30.6671,-87.9365,5.689,7.9,1111122 
DISL,ioos:station:DISL:MHPA:1,2010-05-01T17:00:00Z,30.6671,-87.9365,5.745,7.99,1111122 
DISL,ioos:station:DISL:MHPA:1,2010-05-01T17:30:00Z,30.6671,-87.9365,5.786,8.02,1111122 
DISL,ioos:station:DISL:MHPA:1,2010-05-01T18:00:00Z,30.6671,-87.9365,5.822,8.08,1111122 
DISL,ioos:station:DISL:MHPA:1,2010-05-01T18:30:00Z,30.6671,-87.9365,5.793,8.08,1111122 
DISL,ioos:station:DISL:MHPA:1,2010-05-01T19:00:00Z,30.6671,-87.9365,5.76,8.07,1111122 
DISL,ioos:station:DISL:MHPA:1,2010-05-01T19:30:00Z,30.6671,-87.9365,5.733,8.05,1111122 
DISL,ioos:station:DISL:MHPA:1,2010-05-01T20:00:00Z,30.6671,-87.9365,5.693,8.1,1111122 
DISL,ioos:station:DISL:MHPA:1,2010-05-01T20:30:00Z,30.6671,-87.9365,5.596,8.08,1111122 
DISL,ioos:station:DISL:MHPA:1,2010-05-01T21:00:00Z,30.6671,-87.9365,5.536,8.05,1111122 
DISL,ioos:station:DISL:MHPA:1,2010-05-01T21:30:00Z,30.6671,-87.9365,5.436,7.96,1111122 
DISL,ioos:station:DISL:MHPA:1,2010-05-01T22:00:00Z,30.6671,-87.9365,5.277,7.85,1111122 
DISL,ioos:station:DISL:MHPA:1,2010-05-01T22:30:00Z,30.6671,-87.9365,5.235,7.98,1111122 
DISL,ioos:station:DISL:MHPA:1,2010-05-01T23:00:00Z,30.6671,-87.9365,5.109,7.95,1111122 
DISL,ioos:station:DISL:MHPA:1,2010-05-01T23:30:00Z,30.6671,-87.9365,4.94,7.85,1111122 
DISL,ioos:station:DISL:MHPA:1,2010-05-02T00:00:00Z,30.6671,-87.9365,4.758,7.79,1111122 
DISL,ioos:station:DISL:MHPA:1,2010-05-02T00:30:00Z,30.6671,-87.9365,4.644,7.81,1111122 
DISL,ioos:station:DISL:MHPA:1,2010-05-02T01:00:00Z,30.6671,-87.9365,4.513,7.73,1111122 
DISL,ioos:station:DISL:MHPA:1,2010-05-02T01:30:00Z,30.6671,-87.9365,4.414,7.82,1111122 
DISL,ioos:station:DISL:MHPA:1,2010-05-02T02:00:00Z,30.6671,-87.9365,4.324,7.78,1111122 
DISL,ioos:station:DISL:MHPA:1,2010-05-02T02:30:00Z,30.6671,-87.9365,4.266,7.66,1111122 
DISL,ioos:station:DISL:MHPA:1,2010-05-02T03:00:00Z,30.6671,-87.9365,4.219,7.7,1111122 
DISL,ioos:station:DISL:MHPA:1,2010-05-02T03:30:00Z,30.6671,-87.9365,4.213,7.69,1111122 
DISL,ioos:station:DISL:MHPA:1,2010-05-02T04:00:00Z,30.6671,-87.9365,4.152,7.51,1111122 
DISL,ioos:station:DISL:MHPA:1,2010-05-02T04:30:00Z,30.6671,-87.9365,4.081,7.37,1111122 
DISL,ioos:station:DISL:MHPA:1,2010-05-02T05:00:00Z,30.6671,-87.9365,4.059,7.32,1111122 
DISL,ioos:station:DISL:MHPA:1,2010-05-02T05:30:00Z,30.6671,-87.9365,4.036,7.37,1111122 
DISL,ioos:station:DISL:MHPA:1,2010-05-02T06:00:00Z,30.6671,-87.9365,3.982,7.4,1111122 
DISL,ioos:station:DISL:MHPA:1,2010-05-02T06:30:00Z,30.6671,-87.9365,3.96,7.33,1111122 
DISL,ioos:station:DISL:MHPA:1,2010-05-02T07:00:00Z,30.6671,-87.9365,3.961,7.33,1111122 
DISL,ioos:station:DISL:MHPA:1,2010-05-02T07:30:00Z,30.6671,-87.9365,3.969,7.48,1111122 
DISL,ioos:station:DISL:MHPA:1,2010-05-02T08:00:00Z,30.6671,-87.9365,4.027,7.58,1111122 
DISL,ioos:station:DISL:MHPA:1,2010-05-02T08:30:00Z,30.6671,-87.9365,4.097,7.61,1111122 
DISL,ioos:station:DISL:MHPA:1,2010-05-02T09:00:00Z,30.6671,-87.9365,4.193,7.65,1111122 
DISL,ioos:station:DISL:MHPA:1,2010-05-02T09:30:00Z,30.6671,-87.9365,4.286,7.62,1111122 
DISL,ioos:station:DISL:MHPA:1,2010-05-02T10:00:00Z,30.6671,-87.9365,4.383,7.6,1111122 
DISL,ioos:station:DISL:MHPA:1,2010-05-02T10:30:00Z,30.6671,-87.9365,4.476,7.63,1111122 
DISL,ioos:station:DISL:MHPA:1,2010-05-02T11:00:00Z,30.6671,-87.9365,4.568,7.73,1111122 
DISL,ioos:station:DISL:MHPA:1,2010-05-02T11:30:00Z,30.6671,-87.9365,4.682,7.72,1111122 
DISL,ioos:station:DISL:MHPA:1,2010-05-02T12:00:00Z,30.6671,-87.9365,4.779,7.71,1111122 
DISL,ioos:station:DISL:MHPA:1,2010-05-02T12:30:00Z,30.6671,-87.9365,4.845,7.76,1111122 
DISL,ioos:station:DISL:MHPA:1,2010-05-02T13:00:00Z,30.6671,-87.9365,4.941,7.7,1111122 
DISL,ioos:station:DISL:MHPA:1,2010-05-02T13:30:00Z,30.6671,-87.9365,5.048,7.74,1111122 
DISL,ioos:station:DISL:MHPA:1,2010-05-02T14:00:00Z,30.6671,-87.9365,5.142,7.76,1111122 
DISL,ioos:station:DISL:MHPA:1,2010-05-02T14:30:00Z,30.6671,-87.9365,5.303,7.84,1111122 
DISL,ioos:station:DISL:MHPA:1,2010-05-02T15:00:00Z,30.6671,-87.9365,5.451,7.86,1111122 
DISL,ioos:station:DISL:MHPA:1,2010-05-02T15:30:00Z,30.6671,-87.9365,5.559,7.99,1111122 
DISL,ioos:station:DISL:MHPA:1,2010-05-02T16:00:00Z,30.6671,-87.9365,5.581,8.0,1111122 
DISL,ioos:station:DISL:MHPA:1,2010-05-02T16:30:00Z,30.6671,-87.9365,5.643,7.92,1111122 
DISL,ioos:station:DISL:MHPA:1,2010-05-02T17:00:00Z,30.6671,-87.9365,5.779,7.98,1111122 
DISL,ioos:station:DISL:MHPA:1,2010-05-02T17:30:00Z,30.6671,-87.9365,5.984,8.03,1111122 
DISL,ioos:station:DISL:MHPA:1,2010-05-02T18:00:00Z,30.6671,-87.9365,6.12,8.07,1111122 
DISL,ioos:station:DISL:MHPA:1,2010-05-02T18:30:00Z,30.6671,-87.9365,6.218,8.08,1111122 
DISL,ioos:station:DISL:MHPA:1,2010-05-02T19:00:00Z,30.6671,-87.9365,6.291,8.12,1111122 
DISL,ioos:station:DISL:MHPA:1,2010-05-02T19:30:00Z,30.6671,-87.9365,6.187,8.1,1111122 
DISL,ioos:station:DISL:MHPA:1,2010-05-02T20:00:00Z,30.6671,-87.9365,6.067,8.1,1111122 
DISL,ioos:station:DISL:MHPA:1,2010-05-02T20:30:00Z,30.6671,-87.9365,5.975,8.09,1111122 
DISL,ioos:station:DISL:MHPA:1,2010-05-02T21:00:00Z,30.6671,-87.9365,5.918,8.04,1111122 
DISL,ioos:station:DISL:MHPA:1,2010-05-02T21:30:00Z,30.6671,-87.9365,5.854,8.03,1111122 
DISL,ioos:station:DISL:MHPA:1,2010-05-02T22:00:00Z,30.6671,-87.9365,5.774,8.03,1111122 
DISL,ioos:station:DISL:MHPA:1,2010-05-02T22:30:00Z,30.6671,-87.9365,5.711,8.07,1111122 
DISL,ioos:station:DISL:MHPA:1,2010-05-02T23:00:00Z,30.6671,-87.9365,5.628,8.02,1111122 
DISL,ioos:station:DISL:MHPA:1,2010-05-02T23:30:00Z,30.6671,-87.9365,5.557,8.0,1111122 
DISL,ioos:station:DISL:MHPA:1,2010-05-03T00:00:00Z,30.6671,-87.9365,5.424,8.03,1111122 
DISL,ioos:station:DISL:MHPA:1,2010-05-03T00:30:00Z,30.6671,-87.9365,5.355,8.01,1111122 
DISL,ioos:station:DISL:MHPA:1,2010-05-03T01:00:00Z,30.6671,-87.9365,5.246,8.0,1111122 
DISL,ioos:station:DISL:MHPA:1,2010-05-03T01:30:00Z,30.6671,-87.9365,5.111,8.01,1111122 
DISL,ioos:station:DISL:MHPA:1,2010-05-03T02:00:00Z,30.6671,-87.9365,5.012,8.09,1111122 
DISL,ioos:station:DISL:MHPA:1,2010-05-03T02:30:00Z,30.6671,-87.9365,4.935,8.02,1111122 
DISL,ioos:station:DISL:MHPA:1,2010-05-03T03:00:00Z,30.6671,-87.9365,4.822,8.01,1111122 
DISL,ioos:station:DISL:MHPA:1,2010-05-03T03:30:00Z,30.6671,-87.9365,4.756,7.99,1111122 
DISL,ioos:station:DISL:MHPA:1,2010-05-03T04:00:00Z,30.6671,-87.9365,4.717,7.97,1111122 
DISL,ioos:station:DISL:MHPA:1,2010-05-03T04:30:00Z,30.6671,-87.9365,4.672,7.92,1111122 
DISL,ioos:station:DISL:MHPA:1,2010-05-03T05:00:00Z,30.6671,-87.9365,4.729,7.95,1111122 
DISL,ioos:station:DISL:MHPA:1,2010-05-03T05:30:00Z,30.6671,-87.9365,4.691,7.99,1111122 
DISL,ioos:station:DISL:MHPA:1,2010-05-03T06:00:00Z,30.6671,-87.9365,4.632,7.91,1111122 
DISL,ioos:station:DISL:MHPA:1,2010-05-03T06:30:00Z,30.6671,-87.9365,4.543,7.94,1111122 
DISL,ioos:station:DISL:MHPA:1,2010-05-03T07:00:00Z,30.6671,-87.9365,4.463,7.94,1111122 
DISL,ioos:station:DISL:MHPA:1,2010-05-03T07:30:00Z,30.6671,-87.9365,4.396,7.91,1111122 
DISL,ioos:station:DISL:MHPA:1,2010-05-03T08:00:00Z,30.6671,-87.9365,4.385,7.88,1111122 
DISL,ioos:station:DISL:MHPA:1,2010-05-03T08:30:00Z,30.6671,-87.9365,4.317,7.93,1111122 
DISL,ioos:station:DISL:MHPA:1,2010-05-03T09:00:00Z,30.6671,-87.9365,4.257,7.87,1111122 
DISL,ioos:station:DISL:MHPA:1,2010-05-03T09:30:00Z,30.6671,-87.9365,4.304,7.85,1111122 
DISL,ioos:station:DISL:MHPA:1,2010-05-03T10:00:00Z,30.6671,-87.9365,4.263,7.83,1111122 
DISL,ioos:station:DISL:MHPA:1,2010-05-03T10:30:00Z,30.6671,-87.9365,4.402,7.8,1111122 
DISL,ioos:station:DISL:MHPA:1,2010-05-03T11:00:00Z,30.6671,-87.9365,4.516,7.78,1111122 
DISL,ioos:station:DISL:MHPA:1,2010-05-03T11:30:00Z,30.6671,-87.9365,4.601,7.76,1111122 
DISL,ioos:station:DISL:MHPA:1,2010-05-03T12:00:00Z,30.6671,-87.9365,4.628,7.81,1111122 
DISL,ioos:station:DISL:MHPA:1,2010-05-03T12:30:00Z,30.6671,-87.9365,4.696,7.79,1111122 
DISL,ioos:station:DISL:MHPA:1,2010-05-03T13:00:00Z,30.6671,-87.9365,4.758,7.82,1111122 
DISL,ioos:station:DISL:MHPA:1,2010-05-03T13:30:00Z,30.6671,-87.9365,4.814,7.88,1111122 
DISL,ioos:station:DISL:MHPA:1,2010-05-03T14:00:00Z,30.6671,-87.9365,4.837,7.87,1111122 
DISL,ioos:station:DISL:MHPA:1,2010-05-03T14:30:00Z,30.6671,-87.9365,4.786,7.89,1111122 
DISL,ioos:station:DISL:MHPA:1,2010-05-03T15:00:00Z,30.6671,-87.9365,4.736,7.86,1111122 
DISL,ioos:station:DISL:MHPA:1,2010-05-03T15:30:00Z,30.6671,-87.9365,4.751,7.85,1111122 
DISL,ioos:station:DISL:MHPA:1,2010-05-03T16:00:00Z,30.6671,-87.9365,4.772,7.79,1111122 
DISL,ioos:station:DISL:MHPA:1,2010-05-03T16:30:00Z,30.6671,-87.9365,4.793,7.76,1111122 
DISL,ioos:station:DISL:MHPA:1,2010-05-03T17:00:00Z,30.6671,-87.9365,4.947,7.76,1111122 
DISL,ioos:station:DISL:MHPA:1,2010-05-03T17:30:00Z,30.6671,-87.9365,4.975,7.72,1111122 
DISL,ioos:station:DISL:MHPA:1,2010-05-03T18:00:00Z,30.6671,-87.9365,5.0,7.77,1111122 
DISL,ioos:station:DISL:MHPA:1,2010-05-03T18:30:00Z,30.6671,-87.9365,5.023,7.82,1111122 
DISL,ioos:station:DISL:MHPA:1,2010-05-03T19:00:00Z,30.6671,-87.9365,4.836,7.77,1111122 
DISL,ioos:station:DISL:MHPA:1,2010-05-03T19:30:00Z,30.6671,-87.9365,4.723,7.65,1111122 
DISL,ioos:station:DISL:MHPA:1,2010-05-03T20:00:00Z,30.6671,-87.9365,4.666,7.63,1111122 
DISL,ioos:station:DISL:MHPA:1,2010-05-03T20:30:00Z,30.6671,-87.9365,4.561,7.72,1111122 
DISL,ioos:station:DISL:MHPA:1,2010-05-03T21:00:00Z,30.6671,-87.9365,4.504,7.75,1111122 
DISL,ioos:station:DISL:MHPA:1,2010-05-03T21:30:00Z,30.6671,-87.9365,4.487,7.88,1111122 
DISL,ioos:station:DISL:MHPA:1,2010-05-03T22:00:00Z,30.6671,-87.9365,4.493,7.81,1111122 
DISL,ioos:station:DISL:MHPA:1,2010-05-03T22:30:00Z,30.6671,-87.9365,4.447,7.71,1111122 
DISL,ioos:station:DISL:MHPA:1,2010-05-03T23:00:00Z,30.6671,-87.9365,4.43,7.83,1111122 
DISL,ioos:station:DISL:MHPA:1,2010-05-03T23:30:00Z,30.6671,-87.9365,4.336,7.83,1111122 
DISL,ioos:station:DISL:MHPA:1,2010-05-04T00:00:00Z,30.6671,-87.9365,4.253,7.78,1111122 
DISL,ioos:station:DISL:MHPA:1,2010-05-04T00:30:00Z,30.6671,-87.9365,4.2,7.79,1111122 
DISL,ioos:station:DISL:MHPA:1,2010-05-04T01:00:00Z,30.6671,-87.9365,4.132,7.78,1111122 
DISL,ioos:station:DISL:MHPA:1,2010-05-04T01:30:00Z,30.6671,-87.9365,4.077,7.73,1111122 
DISL,ioos:station:DISL:MHPA:1,2010-05-04T02:00:00Z,30.6671,-87.9365,3.988,7.69,1111122 
DISL,ioos:station:DISL:MHPA:1,2010-05-04T02:30:00Z,30.6671,-87.9365,3.909,7.64,1111122 
DISL,ioos:station:DISL:MHPA:1,2010-05-04T03:00:00Z,30.6671,-87.9365,3.82,7.54,1111122 
DISL,ioos:station:DISL:MHPA:1,2010-05-04T03:30:00Z,30.6671,-87.9365,3.71,7.56,1111122 
DISL,ioos:station:DISL:MHPA:1,2010-05-04T04:00:00Z,30.6671,-87.9365,3.608,7.48,1111122 
DISL,ioos:station:DISL:MHPA:1,2010-05-04T04:30:00Z,30.6671,-87.9365,3.495,7.4,1111122 
DISL,ioos:station:DISL:MHPA:1,2010-05-04T05:00:00Z,30.6671,-87.9365,3.407,7.31,1111122 
DISL,ioos:station:DISL:MHPA:1,2010-05-04T05:30:00Z,30.6671,-87.9365,3.344,7.33,1111122 
DISL,ioos:station:DISL:MHPA:1,2010-05-04T06:00:00Z,30.6671,-87.9365,3.279,7.29,1111122 
DISL,ioos:station:DISL:MHPA:1,2010-05-04T06:30:00Z,30.6671,-87.9365,3.229,7.15,1111122 
DISL,ioos:station:DISL:MHPA:1,2010-05-04T07:00:00Z,30.6671,-87.9365,3.199,7.19,1111122 
DISL,ioos:station:DISL:MHPA:1,2010-05-04T07:30:00Z,30.6671,-87.9365,3.166,7.1,1111122 
DISL,ioos:station:DISL:MHPA:1,2010-05-04T08:00:00Z,30.6671,-87.9365,3.171,6.94,1111122 
DISL,ioos:station:DISL:MHPA:1,2010-05-04T08:30:00Z,30.6671,-87.9365,3.191,6.8,1111122 
DISL,ioos:station:DISL:MHPA:1,2010-05-04T09:00:00Z,30.6671,-87.9365,3.155,6.85,1111122 
DISL,ioos:station:DISL:MHPA:1,2010-05-04T09:30:00Z,30.6671,-87.9365,3.128,6.91,1111122 
DISL,ioos:station:DISL:MHPA:1,2010-05-04T10:00:00Z,30.6671,-87.9365,3.149,6.91,1111122 
DISL,ioos:station:DISL:MHPA:1,2010-05-04T10:30:00Z,30.6671,-87.9365,3.129,6.83,1111122 
DISL,ioos:station:DISL:MHPA:1,2010-05-04T11:00:00Z,30.6671,-87.9365,3.175,6.92,1111122 
DISL,ioos:station:DISL:MHPA:1,2010-05-04T11:30:00Z,30.6671,-87.9365,3.221,6.86,1111122 
DISL,ioos:station:DISL:MHPA:1,2010-05-04T12:00:00Z,30.6671,-87.9365,3.217,6.88,1111122 
DISL,ioos:station:DISL:MHPA:1,2010-05-04T12:30:00Z,30.6671,-87.9365,3.249,6.9,1111122 
DISL,ioos:station:DISL:MHPA:1,2010-05-04T13:00:00Z,30.6671,-87.9365,3.352,6.89,1111122 
DISL,ioos:station:DISL:MHPA:1,2010-05-04T13:30:00Z,30.6671,-87.9365,3.389,6.92,1111122 
DISL,ioos:station:DISL:MHPA:1,2010-05-04T14:00:00Z,30.6671,-87.9365,3.44,6.93,1111122 
DISL,ioos:station:DISL:MHPA:1,2010-05-04T14:30:00Z,30.6671,-87.9365,3.509,6.97,1111122 
DISL,ioos:station:DISL:MHPA:1,2010-05-04T15:00:00Z,30.6671,-87.9365,3.646,6.99,1111122 
DISL,ioos:station:DISL:MHPA:1,2010-05-04T15:30:00Z,30.6671,-87.9365,3.739,6.94,1111122 
DISL,ioos:station:DISL:MHPA:1,2010-05-04T16:00:00Z,30.6671,-87.9365,3.821,7.09,1111122 
DISL,ioos:station:DISL:MHPA:1,2010-05-04T16:30:00Z,30.6671,-87.9365,3.818,7.11,1111122 
DISL,ioos:station:DISL:MHPA:1,2010-05-04T17:00:00Z,30.6671,-87.9365,3.817,7.2,1111122 
DISL,ioos:station:DISL:MHPA:1,2010-05-04T17:30:00Z,30.6671,-87.9365,3.86,7.13,1111122 
DISL,ioos:station:DISL:MHPA:1,2010-05-04T18:00:00Z,30.6671,-87.9365,3.949,7.23,1111122 
DISL,ioos:station:DISL:MHPA:1,2010-05-04T18:30:00Z,30.6671,-87.9365,3.976,7.33,1111122 
DISL,ioos:station:DISL:MHPA:1,2010-05-04T19:00:00Z,30.6671,-87.9365,4.093,7.3,1111122 
DISL,ioos:station:DISL:MHPA:1,2010-05-04T19:30:00Z,30.6671,-87.9365,4.16,7.41,1111122 
DISL,ioos:station:DISL:MHPA:1,2010-05-04T20:00:00Z,30.6671,-87.9365,4.295,7.51,1111122 
DISL,ioos:station:DISL:MHPA:1,2010-05-04T20:30:00Z,30.6671,-87.9365,4.353,7.51,1111122 
DISL,ioos:station:DISL:MHPA:1,2010-05-04T21:00:00Z,30.6671,-87.9365,4.37,7.58,1111122 
DISL,ioos:station:DISL:MHPA:1,2010-05-04T21:30:00Z,30.6671,-87.9365,4.408,7.49,1111122 
DISL,ioos:station:DISL:MHPA:1,2010-05-04T22:00:00Z,30.6671,-87.9365,4.355,7.52,1111122 
DISL,ioos:station:DISL:MHPA:1,2010-05-04T22:30:00Z,30.6671,-87.9365,4.266,7.52,1111122 
DISL,ioos:station:DISL:MHPA:1,2010-05-04T23:00:00Z,30.6671,-87.9365,4.182,7.51,1111122 
DISL,ioos:station:DISL:MHPA:1,2010-05-04T23:30:00Z,30.6671,-87.9365,4.103,7.39,1111122 
DISL,ioos:station:DISL:MHPA:1,2010-05-05T00:00:00Z,30.6671,-87.9365,4.018,7.28,1111122 
DISL,ioos:station:DISL:MHPA:1,2010-05-05T00:30:00Z,30.6671,-87.9365,3.922,7.28,1111122 
DISL,ioos:station:DISL:MHPA:1,2010-05-05T01:00:00Z,30.6671,-87.9365,3.858,7.17,1111122 
DISL,ioos:station:DISL:MHPA:1,2010-05-05T01:30:00Z,30.6671,-87.9365,3.788,6.95,1111122 
DISL,ioos:station:DISL:MHPA:1,2010-05-05T02:00:00Z,30.6671,-87.9365,3.762,6.91,1111122 
DISL,ioos:station:DISL:MHPA:1,2010-05-05T02:30:00Z,30.6671,-87.9365,3.712,7.12,1111122 
DISL,ioos:station:DISL:MHPA:1,2010-05-05T03:00:00Z,30.6671,-87.9365,3.634,7.24,1111122 
DISL,ioos:station:DISL:MHPA:1,2010-05-05T03:30:00Z,30.6671,-87.9365,3.523,7.35,1111122 
DISL,ioos:station:DISL:MHPA:1,2010-05-05T04:00:00Z,30.6671,-87.9365,3.436,7.07,1111122 
DISL,ioos:station:DISL:MHPA:1,2010-05-05T04:30:00Z,30.6671,-87.9365,3.354,6.89,1111122 
DISL,ioos:station:DISL:MHPA:1,2010-05-05T05:00:00Z,30.6671,-87.9365,3.269,6.81,1111122 
DISL,ioos:station:DISL:MHPA:1,2010-05-05T05:30:00Z,30.6671,-87.9365,3.214,6.75,1111122 
DISL,ioos:station:DISL:MHPA:1,2010-05-05T06:00:00Z,30.6671,-87.9365,3.157,6.71,1111122 
DISL,ioos:station:DISL:MHPA:1,2010-05-05T06:30:00Z,30.6671,-87.9365,3.071,6.97,1111122 
DISL,ioos:station:DISL:MHPA:1,2010-05-05T07:00:00Z,30.6671,-87.9365,2.996,6.98,1111122 
DISL,ioos:station:DISL:MHPA:1,2010-05-05T07:30:00Z,30.6671,-87.9365,2.955,7.11,1111122 
DISL,ioos:station:DISL:MHPA:1,2010-05-05T08:00:00Z,30.6671,-87.9365,2.938,7.06,1111122 
DISL,ioos:station:DISL:MHPA:1,2010-05-05T08:30:00Z,30.6671,-87.9365,2.93,7.03,1111122 
DISL,ioos:station:DISL:MHPA:1,2010-05-05T09:00:00Z,30.6671,-87.9365,2.931,6.63,1111122 
DISL,ioos:station:DISL:MHPA:1,2010-05-05T09:30:00Z,30.6671,-87.9365,2.958,6.71,1111122 
DISL,ioos:station:DISL:MHPA:1,2010-05-05T10:00:00Z,30.6671,-87.9365,3.03,6.57,1111122 
DISL,ioos:station:DISL:MHPA:1,2010-05-05T10:30:00Z,30.6671,-87.9365,3.083,6.47,1111122 
DISL,ioos:station:DISL:MHPA:1,2010-05-05T11:00:00Z,30.6671,-87.9365,3.127,6.52,1111122 
DISL,ioos:station:DISL:MHPA:1,2010-05-05T11:30:00Z,30.6671,-87.9365,3.234,6.45,1111122 
DISL,ioos:station:DISL:MHPA:1,2010-05-05T12:00:00Z,30.6671,-87.9365,3.329,6.46,1111122 
DISL,ioos:station:DISL:MHPA:1,2010-05-05T12:30:00Z,30.6671,-87.9365,3.401,6.41,1111122 
DISL,ioos:station:DISL:MHPA:1,2010-05-05T13:00:00Z,30.6671,-87.9365,3.489,6.51,1111122 
DISL,ioos:station:DISL:MHPA:1,2010-05-05T13:30:00Z,30.6671,-87.9365,3.585,6.43,1111122 
DISL,ioos:station:DISL:MHPA:1,2010-05-05T14:00:00Z,30.6671,-87.9365,3.686,6.64,1111122 
DISL,ioos:station:DISL:MHPA:1,2010-05-05T14:30:00Z,30.6671,-87.9365,3.801,6.52,1111122 
DISL,ioos:station:DISL:MHPA:1,2010-05-05T15:00:00Z,30.6671,-87.9365,3.868,7.01,1111122 
DISL,ioos:station:DISL:MHPA:1,2010-05-05T15:30:00Z,30.6671,-87.9365,3.917,6.98,1111122 
DISL,ioos:station:DISL:MHPA:1,2010-05-05T16:00:00Z,30.6671,-87.9365,3.98,7.16,1111122 
DISL,ioos:station:DISL:MHPA:1,2010-05-05T16:30:00Z,30.6671,-87.9365,4.028,7.23,1111122 
DISL,ioos:station:DISL:MHPA:1,2010-05-05T17:00:00Z,30.6671,-87.9365,4.086,7.36,1111122 
DISL,ioos:station:DISL:MHPA:1,2010-05-05T17:30:00Z,30.6671,-87.9365,4.126,7.25,1111122 
DISL,ioos:station:DISL:MHPA:1,2010-05-05T18:00:00Z,30.6671,-87.9365,4.155,7.36,1111122 
DISL,ioos:station:DISL:MHPA:1,2010-05-05T18:30:00Z,30.6671,-87.9365,4.175,7.33,1111122 
DISL,ioos:station:DISL:MHPA:1,2010-05-05T19:00:00Z,30.6671,-87.9365,4.215,7.21,1111122 
DISL,ioos:station:DISL:MHPA:1,2010-05-05T19:30:00Z,30.6671,-87.9365,4.329,7.2,1111122 
DISL,ioos:station:DISL:MHPA:1,2010-05-05T20:00:00Z,30.6671,-87.9365,4.361,7.44,1111122 
DISL,ioos:station:DISL:MHPA:1,2010-05-05T20:30:00Z,30.6671,-87.9365,4.365,7.52,1111122 
DISL,ioos:station:DISL:MHPA:1,2010-05-05T21:00:00Z,30.6671,-87.9365,4.437,7.73,1111122 
DISL,ioos:station:DISL:MHPA:1,2010-05-05T21:30:00Z,30.6671,-87.9365,4.485,8.18,1111122 
DISL,ioos:station:DISL:MHPA:1,2010-05-05T22:00:00Z,30.6671,-87.9365,4.424,8.28,1111122 
DISL,ioos:station:DISL:MHPA:1,2010-05-05T22:30:00Z,30.6671,-87.9365,4.405,8.41,1111122 
DISL,ioos:station:DISL:MHPA:1,2010-05-05T23:00:00Z,30.6671,-87.9365,4.392,8.43,1111122 
DISL,ioos:station:DISL:MHPA:1,2010-05-05T23:30:00Z,30.6671,-87.9365,4.339,8.38,1111122 
DISL,ioos:station:DISL:MHPA:1,2010-05-06T00:00:00Z,30.6671,-87.9365,4.263,8.29,1111122 
DISL,ioos:station:DISL:MHPA:1,2010-05-06T00:30:00Z,30.6671,-87.9365,4.132,8.07,1111122 
DISL,ioos:station:DISL:MHPA:1,2010-05-06T01:00:00Z,30.6671,-87.9365,4.013,7.85,1111122 
DISL,ioos:station:DISL:MHPA:1,2010-05-06T01:30:00Z,30.6671,-87.9365,3.922,7.67,1111122 
DISL,ioos:station:DISL:MHPA:1,2010-05-06T02:00:00Z,30.6671,-87.9365,3.829,7.43,1111122 
DISL,ioos:station:DISL:MHPA:1,2010-05-06T02:30:00Z,30.6671,-87.9365,3.742,7.31,1111122 
DISL,ioos:station:DISL:MHPA:1,2010-05-06T03:00:00Z,30.6671,-87.9365,3.648,7.04,1111122 
DISL,ioos:station:DISL:MHPA:1,2010-05-06T03:30:00Z,30.6671,-87.9365,3.571,7.0,1111122 
DISL,ioos:station:DISL:MHPA:1,2010-05-06T04:00:00Z,30.6671,-87.9365,3.482,6.9,1111122 
DISL,ioos:station:DISL:MHPA:1,2010-05-06T04:30:00Z,30.6671,-87.9365,3.417,7.01,1111122 
DISL,ioos:station:DISL:MHPA:1,2010-05-06T05:00:00Z,30.6671,-87.9365,3.345,6.94,1111122 
DISL,ioos:station:DISL:MHPA:1,2010-05-06T05:30:00Z,30.6671,-87.9365,3.266,6.95,1111122 
DISL,ioos:station:DISL:MHPA:1,2010-05-06T06:00:00Z,30.6671,-87.9365,3.188,7.15,1111122 
DISL,ioos:station:DISL:MHPA:1,2010-05-06T06:30:00Z,30.6671,-87.9365,3.136,6.9,1111122 
DISL,ioos:station:DISL:MHPA:1,2010-05-06T07:00:00Z,30.6671,-87.9365,3.09,6.69,1111122 
DISL,ioos:station:DISL:MHPA:1,2010-05-06T07:30:00Z,30.6671,-87.9365,3.038,6.56,1111122 
DISL,ioos:station:DISL:MHPA:1,2010-05-06T08:00:00Z,30.6671,-87.9365,3.013,6.55,1111122 
DISL,ioos:station:DISL:MHPA:1,2010-05-06T08:30:00Z,30.6671,-87.9365,2.998,6.71,1111122 
DISL,ioos:station:DISL:MHPA:1,2010-05-06T09:00:00Z,30.6671,-87.9365,2.978,6.63,1111122 
DISL,ioos:station:DISL:MHPA:1,2010-05-06T09:30:00Z,30.6671,-87.9365,2.99,6.61,1111122 
DISL,ioos:station:DISL:MHPA:1,2010-05-06T10:00:00Z,30.6671,-87.9365,3.018,6.63,1111122 
DISL,ioos:station:DISL:MHPA:1,2010-05-06T10:30:00Z,30.6671,-87.9365,3.057,6.79,1111122 
DISL,ioos:station:DISL:MHPA:1,2010-05-06T11:00:00Z,30.6671,-87.9365,3.068,6.61,1111122 
DISL,ioos:station:DISL:MHPA:1,2010-05-06T11:30:00Z,30.6671,-87.9365,3.104,6.6,1111122 
DISL,ioos:station:DISL:MHPA:1,2010-05-06T12:00:00Z,30.6671,-87.9365,3.166,6.39,1111122 
DISL,ioos:station:DISL:MHPA:1,2010-05-06T12:30:00Z,30.6671,-87.9365,3.244,6.33,1111122 
DISL,ioos:station:DISL:MHPA:1,2010-05-06T13:00:00Z,30.6671,-87.9365,3.319,6.34,1111122 
DISL,ioos:station:DISL:MHPA:1,2010-05-06T13:30:00Z,30.6671,-87.9365,3.34,6.36,1111122 
DISL,ioos:station:DISL:MHPA:1,2010-05-06T14:00:00Z,30.6671,-87.9365,3.469,6.56,1111122 
DISL,ioos:station:DISL:MHPA:1,2010-05-06T14:30:00Z,30.6671,-87.9365,3.519,6.63,1111122 
DISL,ioos:station:DISL:MHPA:1,2010-05-06T15:00:00Z,30.6671,-87.9365,3.578,6.82,1111122 
DISL,ioos:station:DISL:MHPA:1,2010-05-06T15:30:00Z,30.6671,-87.9365,3.658,6.85,1111122 